datetime,ave reservoir elevation
2021-08-04,4032.24038
2021-08-05,4032.27494
2021-08-06,4032.35531
2021-08-07,4032.3424
2021-08-08,4032.30823
2021-08-09,4032.3301
2021-08-10,4032.33323
2021-08-11,4032.32865
2021-08-12,4032.34354
2021-08-13,4032.35656
2021-08-14,4032.36719
2021-08-15,4032.39344
2021-08-16,4032.39167
2021-08-17,4032.34063
2021-08-18,4032.43781
2021-08-19,4032.46594
2021-08-20,4032.49792
2021-08-21,4032.57281
2021-08-22,4032.65323
2021-08-23,4032.70375
2021-08-24,4032.7449
2021-08-25,4032.79354
2021-08-26,4032.8426
2021-08-27,4032.90146
2021-08-28,4032.96031
2021-08-29,4033.0151
2021-08-30,4033.04458
2021-08-31,4033.10427
2021-09-01,4033.15427
2021-09-02,4033.20469
2021-09-03,4033.25458
2021-09-04,4033.30365
2021-09-05,4033.36
2021-09-06,4033.42667
2021-09-07,4033.49583
2021-09-08,4033.57781
2021-09-09,4033.64948
2021-09-10,4033.77208
2021-09-11,4033.86594
2021-09-12,4033.91271
2021-09-13,4033.96365
2021-09-14,4033.99604
2021-09-15,4033.9975
2021-09-16,4034.01073
2021-09-17,4034.00458
2021-09-18,4034.01073
2021-09-19,4033.99969
2021-09-20,4034.03823
2021-09-21,4034.03354
2021-09-22,4033.99167
2021-09-23,4034.0049
2021-09-24,4033.99885
2021-09-25,4033.98531
2021-09-26,4033.96052
2021-09-27,4033.92833
2021-09-28,4033.92229
2021-09-29,4033.94583
2021-09-30,4033.94094
2021-10-01,4033.93833
2021-10-02,4033.93073
2021-10-03,4033.92365
2021-10-04,4033.9051
2021-10-05,4033.90125
2021-10-06,4033.87146
2021-10-07,4033.87714
2021-10-08,4033.84656
2021-10-09,4033.85406
2021-10-10,4033.78948
2021-10-11,4033.75427
2021-10-12,4033.80198
2021-10-13,4033.79146
2021-10-14,4033.80406
2021-10-15,4033.7999
2021-10-16,4033.78427
2021-10-17,4033.78854
2021-10-18,4033.74594
2021-10-19,4033.82385
2021-10-20,4033.79448
2021-10-21,4033.86906
2021-10-22,4033.84844
2021-10-23,4033.88063
2021-10-24,4033.92854
2021-10-25,4033.86219
2021-10-26,4033.85677
2021-10-27,4033.86354
2021-10-28,4033.84552
2021-10-29,4033.83844
2021-10-30,4033.83
2021-10-31,4033.82104
2021-11-01,4033.85823
2021-11-02,4033.82906
2021-11-03,4033.84104
2021-11-04,4033.78573
2021-11-05,4033.81052
2021-11-06,4033.80625
2021-11-07,4033.8186
2021-11-08,4033.81868
2021-11-09,
2021-11-10,
2021-11-11,
2021-11-12,
2021-11-13,
2021-11-14,
2021-11-15,
2021-11-16,
2021-11-17,
2021-11-18,
2021-11-19,
2021-11-20,
2021-11-21,
2021-11-22,
2021-11-23,
2021-11-24,
2021-11-25,
2021-11-26,
2021-11-27,
2021-11-28,
2021-11-29,
2021-11-30,
2021-12-01,
2021-12-02,
2021-12-03,
2021-12-04,
2021-12-05,
2021-12-06,
2021-12-07,
2021-12-08,
2021-12-09,
2021-12-10,
2021-12-11,
2021-12-12,
2021-12-13,
2021-12-14,
2021-12-15,
2021-12-16,
2021-12-17,
2021-12-18,
2021-12-19,
2021-12-20,
2021-12-21,
2021-12-22,
2021-12-23,
2021-12-24,
2021-12-25,
2021-12-26,
2021-12-27,
2021-12-28,
2021-12-29,
2021-12-30,
2021-12-31,
2022-01-01,
2022-01-02,
2022-01-03,
2022-01-04,
2022-01-05,
2022-01-06,
2022-01-07,
2022-01-08,
2022-01-09,
2022-01-10,
2022-01-11,
2022-01-12,
2022-01-13,
2022-01-14,
2022-01-15,
2022-01-16,
2022-01-17,
2022-01-18,
2022-01-19,
2022-01-20,
2022-01-21,
2022-01-22,
2022-01-23,
2022-01-24,
2022-01-25,
2022-01-26,
2022-01-27,
2022-01-28,
2022-01-29,
2022-01-30,
2022-01-31,
2022-02-01,
2022-02-02,
2022-02-03,
2022-02-04,
2022-02-05,
2022-02-06,
2022-02-07,
2022-02-08,
2022-02-09,
2022-02-10,4003.455
2022-02-11,4003.45458
2022-02-12,4003.44969
2022-02-13,4003.44375
2022-02-14,4017.41573
2022-02-15,4033.37417
2022-02-16,4033.35531
2022-02-17,4033.4126
2022-02-18,4033.41042
2022-02-19,4033.35917
2022-02-20,4033.23948
2022-02-21,4033.24188
2022-02-22,4033.31083
2022-02-23,4033.34208
2022-02-24,4033.35906
2022-02-25,4033.36083
2022-02-26,4033.35417
2022-02-27,4033.34635
2022-02-28,4033.33177
2022-03-01,4033.32646
2022-03-02,4033.30479
2022-03-03,4033.28771
2022-03-04,4033.24063
2022-03-05,4033.1926
2022-03-06,4033.21458
2022-03-07,4033.19896
2022-03-08,4033.115
2022-03-09,4033.06542
2022-03-10,4033.00344
2022-03-11,4033.01531
2022-03-12,4033.03229
2022-03-13,4033.04011
2022-03-14,4033.14365
2022-03-15,4033.24854
2022-03-16,4033.25313
2022-03-17,4033.25979
2022-03-18,4033.26354
2022-03-19,4033.23979
2022-03-20,4033.17958
2022-03-21,4033.18188
2022-03-22,4033.18844
2022-03-23,4033.1901
2022-03-24,4033.1925
2022-03-25,4033.19792
2022-03-26,4033.19969
2022-03-27,4033.2
2022-03-28,4033.18333
2022-03-29,4033.09677
2022-03-30,4033.0376
2022-03-31,4033.01978
2022-04-01,4033.03583
2022-04-02,4033.01552
2022-04-03,4033.00073
2022-04-04,4032.89563
2022-04-05,4032.9676
2022-04-06,4032.98698
2022-04-07,4032.97938
2022-04-08,4032.87
2022-04-09,4032.8601
2022-04-10,4032.88313
2022-04-11,4032.6625
2022-04-12,4032.81333
2022-04-13,4032.87271
2022-04-14,4032.81385
2022-04-15,4032.87229
2022-04-16,4032.82563
2022-04-17,4032.87781
2022-04-18,4032.82719
2022-04-19,4032.85313
2022-04-20,4032.90031
2022-04-21,4032.87865
2022-04-22,4032.84531
2022-04-23,4032.8625
2022-04-24,4032.8549
2022-04-25,4032.81542
2022-04-26,4032.77854
2022-04-27,4032.78677
2022-04-28,4032.71979
2022-04-29,4032.80479
2022-04-30,4032.70083
2022-05-01,4032.77385
2022-05-02,4032.58781
2022-05-03,4032.72844
2022-05-04,4032.72688
2022-05-05,4032.65656
2022-05-06,4032.60156
2022-05-07,4032.56188
2022-05-08,4032.57542
2022-05-09,4032.6424
2022-05-10,4032.63375
2022-05-11,4032.61823
2022-05-12,4032.59677
2022-05-13,4032.585
2022-05-14,4032.58656
2022-05-15,4032.55521
2022-05-16,4032.52646
2022-05-17,4032.5201
2022-05-18,4032.45198
2022-05-19,4032.34479
2022-05-20,4032.45396
2022-05-21,4032.42698
2022-05-22,4032.39958
2022-05-23,4032.36104
2022-05-24,4032.3551
2022-05-25,4032.36156
2022-05-26,4032.30875
2022-05-27,4032.2974
2022-05-28,4032.1799
2022-05-29,4032.03458
2022-05-30,4032.23938
2022-05-31,4032.25271
2022-06-01,4032.21833
2022-06-02,4032.1851
2022-06-03,4032.15354
2022-06-04,4032.20458
2022-06-05,4032.1426
2022-06-06,4032.13271
2022-06-07,4032.12365
2022-06-08,4032.10938
2022-06-09,4032.07396
2022-06-10,4032.00854
2022-06-11,4031.98667
2022-06-12,4031.84406
2022-06-13,4031.9401
2022-06-14,4031.97927
2022-06-15,4031.94698
2022-06-16,4031.89906
2022-06-17,4031.81927
2022-06-18,4031.81896
2022-06-19,4031.81427
2022-06-20,4031.86156
2022-06-21,4031.86115
2022-06-22,4031.81625
2022-06-23,4031.75219
2022-06-24,4031.77417
2022-06-25,4031.76313
2022-06-26,4031.7201
2022-06-27,4031.66802
2022-06-28,4031.58396
2022-06-29,4031.59354
2022-06-30,4031.56073
2022-07-01,4031.52583
2022-07-02,4031.48271
2022-07-03,4031.46656
2022-07-04,4031.48885
2022-07-05,4031.48604
2022-07-06,4031.43365
2022-07-07,4031.40573
2022-07-08,4031.37229
2022-07-09,4031.34365
2022-07-10,4031.31
2022-07-11,4031.32368
2022-07-12,4031.30656
2022-07-13,4031.26042
2022-07-14,4031.23969
2022-07-15,4031.22646
2022-07-16,4031.18927
2022-07-17,4031.13396
2022-07-18,4031.09042
2022-07-19,4031.06865
2022-07-20,4031.06979
2022-07-21,4031.02073
2022-07-22,4030.96938
2022-07-23,4030.92979
2022-07-24,4030.90781
2022-07-25,4030.88583
2022-07-26,4030.85375
2022-07-27,4030.82354
2022-07-28,4030.79844
2022-07-29,4030.7701
2022-07-30,4030.73875
2022-07-31,4030.7113
2022-08-01,4030.67073
2022-08-02,4030.6576
2022-08-03,4030.64719
2022-08-04,4030.62104
2022-08-05,4030.59427
2022-08-06,4030.5751
2022-08-07,4030.5524
2022-08-08,4030.51448
2022-08-09,4030.48219
2022-08-10,4030.46022
2022-08-11,
2022-08-12,
2022-08-13,
2022-08-14,
2022-08-15,
2022-08-16,
2022-08-17,
2022-08-18,
2022-08-19,
2022-08-20,
2022-08-21,
2022-08-22,
2022-08-23,
2022-08-24,
2022-08-25,
2022-08-26,
2022-08-27,
2022-08-28,
2022-08-29,
2022-08-30,
2022-08-31,
2022-09-01,
2022-09-02,
2022-09-03,
2022-09-04,
2022-09-05,
2022-09-06,
2022-09-07,
2022-09-08,
2022-09-09,
2022-09-10,
2022-09-11,
2022-09-12,
2022-09-13,
2022-09-14,
2022-09-15,
2022-09-16,
2022-09-17,
2022-09-18,
2022-09-19,
2022-09-20,
2022-09-21,
2022-09-22,
2022-09-23,
2022-09-24,
2022-09-25,
2022-09-26,
2022-09-27,
2022-09-28,
2022-09-29,
2022-09-30,
2022-10-01,
2022-10-02,
2022-10-03,
2022-10-04,
2022-10-05,
2022-10-06,
2022-10-07,
2022-10-08,
2022-10-09,
2022-10-10,
2022-10-11,
2022-10-12,
2022-10-13,
2022-10-14,
2022-10-15,
2022-10-16,
2022-10-17,
2022-10-18,
2022-10-19,
2022-10-20,
2022-10-21,
2022-10-22,
2022-10-23,
2022-10-24,
2022-10-25,
2022-10-26,
2022-10-27,
2022-10-28,
2022-10-29,
2022-10-30,
2022-10-31,
2022-11-01,
2022-11-02,
2022-11-03,
2022-11-04,
2022-11-05,
2022-11-06,
2022-11-07,
2022-11-08,
2022-11-09,
2022-11-10,
2022-11-11,
2022-11-12,
2022-11-13,
2022-11-14,
2022-11-15,
2022-11-16,
2022-11-17,
2022-11-18,
2022-11-19,
2022-11-20,
2022-11-21,
2022-11-22,
2022-11-23,
2022-11-24,
2022-11-25,
2022-11-26,
2022-11-27,
2022-11-28,
2022-11-29,
2022-11-30,
2022-12-01,
2022-12-02,
2022-12-03,
2022-12-04,
2022-12-05,
2022-12-06,
2022-12-07,
2022-12-08,
2022-12-09,
2022-12-10,
2022-12-11,
2022-12-12,
2022-12-13,
2022-12-14,
2022-12-15,
2022-12-16,
2022-12-17,
2022-12-18,
2022-12-19,
2022-12-20,
2022-12-21,
2022-12-22,
2022-12-23,
2022-12-24,
2022-12-25,
2022-12-26,
2022-12-27,
2022-12-28,
2022-12-29,
2022-12-30,
2022-12-31,
2023-01-01,
2023-01-02,
2023-01-03,
2023-01-04,
2023-01-05,
2023-01-06,
2023-01-07,
2023-01-08,
2023-01-09,
2023-01-10,
2023-01-11,
2023-01-12,
2023-01-13,
2023-01-14,
2023-01-15,
2023-01-16,
2023-01-17,
2023-01-18,
2023-01-19,
2023-01-20,
2023-01-21,
2023-01-22,
2023-01-23,
2023-01-24,
2023-01-25,
2023-01-26,
2023-01-27,
2023-01-28,
2023-01-29,
2023-01-30,
2023-01-31,
2023-02-01,
2023-02-02,
2023-02-03,
2023-02-04,
2023-02-05,
2023-02-06,
2023-02-07,
2023-02-08,
2023-02-09,
2023-02-10,
2023-02-11,
2023-02-12,
2023-02-13,
2023-02-14,
2023-02-15,
2023-02-16,
2023-02-17,
2023-02-18,
2023-02-19,
2023-02-20,
2023-02-21,
2023-02-22,
2023-02-23,
2023-02-24,
2023-02-25,
2023-02-26,
2023-02-27,
2023-02-28,
2023-03-01,
2023-03-02,
2023-03-03,
2023-03-04,
2023-03-05,
2023-03-06,
2023-03-07,
2023-03-08,
2023-03-09,
2023-03-10,
2023-03-11,
2023-03-12,
2023-03-13,
2023-03-14,
2023-03-15,
2023-03-16,
2023-03-17,
2023-03-18,
2023-03-19,
2023-03-20,
2023-03-21,
2023-03-22,
2023-03-23,
2023-03-24,
2023-03-25,
2023-03-26,
2023-03-27,
2023-03-28,
2023-03-29,
2023-03-30,
2023-03-31,
2023-04-01,
2023-04-02,
2023-04-03,
2023-04-04,
2023-04-05,4031.31528
2023-04-06,4031.43583
2023-04-07,4031.40208
2023-04-08,4031.42375
2023-04-09,4031.4626
2023-04-10,4031.49458
2023-04-11,4031.50917
2023-04-12,4031.50323
2023-04-13,4031.6824
2023-04-14,4031.77458
2023-04-15,4031.885
2023-04-16,4031.96531
2023-04-17,4032.04094
2023-04-18,4032.18313
2023-04-19,4032.2451
2023-04-20,4032.35135
2023-04-21,4032.41677
2023-04-22,4032.51719
2023-04-23,4032.50927
2023-04-24,4032.53365
2023-04-25,4032.62083
2023-04-26,4032.46875
2023-04-27,4032.32427
2023-04-28,4032.33063
2023-04-29,4032.32156
2023-04-30,4032.2876
2023-05-01,4032.25625
2023-05-02,4032.32385
2023-05-03,4032.33073
2023-05-04,4032.29802
2023-05-05,4032.25375
2023-05-06,4032.30615
2023-05-07,4032.31573
2023-05-08,4032.30635
2023-05-09,4032.28469
2023-05-10,4032.25896
2023-05-11,4032.25167
2023-05-12,4032.2425
2023-05-13,4032.23625
2023-05-14,4032.21406
2023-05-15,4032.14385
2023-05-16,4032.12573
2023-05-17,4032.10167
2023-05-18,4032.0775
2023-05-19,4032.04
2023-05-20,4032.00792
2023-05-21,4031.95271
2023-05-22,4031.93917
2023-05-23,4031.91948
2023-05-24,4031.92885
2023-05-25,4031.91042
2023-05-26,4031.89813
2023-05-27,4031.86531
2023-05-28,4031.95938
2023-05-29,
2023-05-30,
2023-05-31,
2023-06-01,4031.94791
2023-06-02,4031.98813
2023-06-03,4031.98979
2023-06-04,4031.98344
2023-06-05,4031.98271
2023-06-06,4031.97875
2023-06-07,4031.96688
2023-06-08,4032.00177
2023-06-09,4032.05906
2023-06-10,4032.08844
2023-06-11,4032.12594
2023-06-12,4032.13573
2023-06-13,4032.10115
2023-06-14,4032.10198
2023-06-15,4032.14719
2023-06-16,4032.16406
2023-06-17,4032.1201
2023-06-18,4032.00698
2023-06-19,4031.94854
2023-06-20,4032.08875
2023-06-21,4032.16531
2023-06-22,4032.16365
2023-06-23,4032.15052
2023-06-24,4032.15135
2023-06-25,4032.14604
2023-06-26,4032.15135
2023-06-27,4032.15849
2023-06-28,4032.13
2023-06-29,4032.12031
2023-06-30,4032.10188
2023-07-01,4032.08438
2023-07-02,4032.07708
2023-07-03,4032.06219
2023-07-04,4032.05438
2023-07-05,4032.0524
2023-07-06,4032.02635
2023-07-07,4032.0226
2023-07-08,4032.02292
2023-07-09,4032.02198
2023-07-10,4032.01281
2023-07-11,4032.00917
2023-07-12,4032.005
2023-07-13,4032.00438
2023-07-14,4032.00385
2023-07-15,4031.9999
2023-07-16,4031.99885
2023-07-17,4031.9951
2023-07-18,4032.02229
2023-07-19,4032.04771
2023-07-20,4032.06677
2023-07-21,4032.08615
2023-07-22,4032.10344
2023-07-23,4032.11865
2023-07-24,4032.1275
2023-07-25,4032.13177
2023-07-26,4032.14354
2023-07-27,4032.14604
2023-07-28,4032.15125
2023-07-29,4032.1449
2023-07-30,4032.13333
2023-07-31,4032.14938
2023-08-01,4032.16021
2023-08-02,4032.16958
2023-08-03,4032.16552
2023-08-04,4032.17536
2023-08-05,
2023-08-06,
2023-08-07,
2023-08-08,
2023-08-09,4032.37825
2023-08-10,4032.40948
2023-08-11,4032.43125
2023-08-12,4032.45573
2023-08-13,4032.48365
2023-08-14,4032.50865
2023-08-15,4032.52115
2023-08-16,4032.52385
2023-08-17,4032.53677
2023-08-18,4032.55646
2023-08-19,4032.57583
2023-08-20,4032.59323
2023-08-21,4032.64156
2023-08-22,4032.71271
2023-08-23,4032.73417
2023-08-24,4032.79052
2023-08-25,4032.83406
2023-08-26,4032.88948
2023-08-27,4032.96094
2023-08-28,4033.03865
2023-08-29,4033.02698
2023-08-30,4033.15208
2023-08-31,4033.18865
2023-09-01,4033.25542
2023-09-02,4033.34521
2023-09-03,4033.27958
2023-09-04,4033.33385
2023-09-05,4033.36396
2023-09-06,4033.3974
2023-09-07,4033.4224
2023-09-08,4033.44667
2023-09-09,4033.46385
2023-09-10,4033.4801
2023-09-11,4033.4976
2023-09-12,4033.49313
2023-09-13,4033.52073
2023-09-14,4033.53573
2023-09-15,4033.55115
2023-09-16,4033.5549
2023-09-17,4033.57313
2023-09-18,4033.57198
2023-09-19,4033.58323
2023-09-20,4033.54844
2023-09-21,4033.62729
2023-09-22,4033.69573
2023-09-23,4033.70625
2023-09-24,4033.7676
2023-09-25,4033.84469
2023-09-26,4033.81844
2023-09-27,4033.85167
2023-09-28,4033.87656
2023-09-29,4033.89135
2023-09-30,4033.88417
2023-10-01,4033.89375
2023-10-02,4033.9275
2023-10-03,4033.93875
2023-10-04,4033.95896
2023-10-05,4033.96531
2023-10-06,4033.95969
2023-10-07,4033.94531
2023-10-08,4033.92521
2023-10-09,4033.89438
2023-10-10,4033.87625
2023-10-11,4033.84281
2023-10-12,4033.89646
2023-10-13,4033.8824
2023-10-14,4033.86865
2023-10-15,4033.88323
2023-10-16,4033.84833
2023-10-17,4033.82781
2023-10-18,4033.8126
2023-10-19,4033.78698
2023-10-20,4033.77031
2023-10-21,4033.73302
2023-10-22,4033.68281
2023-10-23,4033.63229
2023-10-24,4033.6075
2023-10-25,4033.51813
2023-10-26,4033.53969
2023-10-27,4033.50323
2023-10-28,4033.46698
2023-10-29,4033.43865
2023-10-30,4033.40771
2023-10-31,4033.38458
2023-11-01,4033.36063
2023-11-02,4033.3375
2023-11-03,4033.31813
2023-11-04,4033.28708
2023-11-05,4033.2779
2023-11-06,4033.25031
2023-11-07,4033.21146
2023-11-08,4033.2075
2023-11-09,4033.18448
2023-11-10,4033.16969
2023-11-11,4033.14813
2023-11-12,4033.13146
2023-11-13,4033.11719
2023-11-14,4033.09521
2023-11-15,4033.06927
2023-11-16,4033.05844
2023-11-17,4033.04813
2023-11-18,4033.07313
2023-11-19,4032.9824
2023-11-20,4033.0325
2023-11-21,4033.02528
2023-11-22,
2023-11-23,
2023-11-24,
2023-11-25,
2023-11-26,
2023-11-27,
2023-11-28,4032.85
2023-11-29,4032.84073
2023-11-30,4032.81635
2023-12-01,4032.81156
2023-12-02,4032.79063
2023-12-03,4032.81365
2023-12-04,4032.8249
2023-12-05,4032.81146
2023-12-06,4032.80021
2023-12-07,4032.77958
2023-12-08,4032.78469
2023-12-09,4032.78406
2023-12-10,4032.77792
2023-12-11,4032.77063
2023-12-12,4032.7701
2023-12-13,4032.75878
2023-12-14,
2023-12-15,
2023-12-16,
2023-12-17,
2023-12-18,4032.80571
2023-12-19,4032.79021
2023-12-20,4032.73844
2023-12-21,4032.72781
2023-12-22,4032.70354
2023-12-23,4032.70917
2023-12-24,4032.70281
2023-12-25,4032.70083
2023-12-26,4032.72844
2023-12-27,4032.79427
2023-12-28,4032.74385
2023-12-29,4032.76542
2023-12-30,4032.7275
2023-12-31,4032.73635
2024-01-01,4032.75115
2024-01-02,4032.80281
2024-01-03,4032.78156
2024-01-04,4032.8224
2024-01-05,4032.83469
2024-01-06,4032.77042
2024-01-07,4032.81135
2024-01-08,4032.8774
2024-01-09,4032.88365
2024-01-10,4032.90552
2024-01-11,4032.93823
2024-01-12,4032.95417
2024-01-13,4032.9725
2024-01-14,4033.00344
2024-01-15,4033.02031
2024-01-16,4033.03927
2024-01-17,4033.05302
2024-01-18,4033.08917
2024-01-19,4033.11896
2024-01-20,4033.21594
2024-01-21,4033.24479
2024-01-22,4033.18792
2024-01-23,4033.23042
2024-01-24,4033.2724
2024-01-25,4033.31813
2024-01-26,4033.35073
2024-01-27,4033.38854
2024-01-28,4033.39813
2024-01-29,4033.42583
2024-01-30,4033.46375
2024-01-31,4033.57458
2024-02-01,4033.47615
2024-02-02,4033.47615
2024-02-03,4033.51594
2024-02-04,4033.60969
2024-02-05,4033.7426
2024-02-06,4033.63135
2024-02-07,4033.64
2024-02-08,
2024-02-09,
2024-02-10,
2024-02-11,
2024-02-12,
2024-02-13,
2024-02-14,
2024-02-15,
2024-02-16,
2024-02-17,
2024-02-18,
2024-02-19,
2024-02-20,
2024-02-21,
2024-02-22,
2024-02-23,
2024-02-24,4033.76051
2024-02-25,4033.7525
2024-02-26,4033.63406
2024-02-27,4033.73135
2024-02-28,4033.74885
2024-02-29,4033.74281
2024-03-01,4033.7375
2024-03-02,4033.7576
2024-03-03,4033.75615
2024-03-04,4033.7802
2024-03-05,
2024-03-06,4033.77414
2024-03-07,4033.75469
2024-03-08,4033.79417
2024-03-09,4033.74823
2024-03-10,4033.72261
2024-03-11,4033.74667
2024-03-12,4033.71938
2024-03-13,4033.76135
2024-03-14,4033.86563
2024-03-15,4033.94052
2024-03-16,4033.98865
2024-03-17,4034.0675
2024-03-18,4034.12354
2024-03-19,4034.18302
2024-03-20,4034.2199
2024-03-21,4034.26031
2024-03-22,4034.30865
2024-03-23,4034.28552
2024-03-24,4034.25083
2024-03-25,4034.2851
2024-03-26,4034.34656
2024-03-27,4034.43229
2024-03-28,4034.46545
